TimeEDT,TemperatureF,Dew PointF,Humidity,Sea Level PressureIn,VisibilityMPH,Wind Direction,Wind SpeedMPH,Gust SpeedMPH,PrecipitationIn,Events,Conditions,WindDirDegrees,DateUTC
12:54 AM,61.0,55.0,81,29.93,10.0,SSW,13.8,-,N/A,,Partly Cloudy,210,2012-10-15 04:54:00
1:54 AM,60.1,54.0,80,29.90,10.0,SSW,17.3,-,N/A,,Partly Cloudy,210,2012-10-15 05:54:00
2:54 AM,61.0,55.0,81,29.89,10.0,SW,15.0,-,N/A,,Partly Cloudy,220,2012-10-15 06:54:00
3:54 AM,60.1,55.0,83,29.87,10.0,SW,11.5,-,N/A,,Partly Cloudy,220,2012-10-15 07:54:00
4:54 AM,61.0,55.9,83,29.86,10.0,SW,10.4,-,N/A,,Scattered Clouds,220,2012-10-15 08:54:00
5:54 AM,61.0,57.0,87,29.84,10.0,SSW,12.7,-,N/A,,Overcast,210,2012-10-15 09:54:00
6:54 AM,61.0,57.0,87,29.82,10.0,SSW,10.4,-,N/A,,Mostly Cloudy,200,2012-10-15 10:54:00
7:54 AM,63.0,57.9,84,29.81,10.0,SSW,12.7,-,N/A,,Mostly Cloudy,200,2012-10-15 11:54:00
8:54 AM,66.0,59.0,78,29.79,10.0,SSW,15.0,-,N/A,,Mostly Cloudy,200,2012-10-15 12:54:00
9:54 AM,68.0,59.0,73,29.78,10.0,SSW,17.3,-,N/A,,Mostly Cloudy,200,2012-10-15 13:54:00
10:54 AM,71.1,59.0,66,29.76,10.0,SSW,21.9,31.1,N/A,,Mostly Cloudy,200,2012-10-15 14:54:00
11:54 AM,72.0,57.9,61,29.75,10.0,SSW,21.9,34.5,N/A,,Mostly Cloudy,210,2012-10-15 15:54:00
12:54 PM,73.0,59.0,61,29.72,10.0,SSW,18.4,28.8,N/A,,Mostly Cloudy,200,2012-10-15 16:54:00
1:54 PM,73.0,59.0,61,29.70,10.0,SSW,18.4,-,N/A,,Mostly Cloudy,200,2012-10-15 17:54:00
2:54 PM,73.0,59.0,61,29.68,10.0,SSW,17.3,29.9,N/A,,Mostly Cloudy,200,2012-10-15 18:54:00
3:54 PM,71.1,57.9,63,29.67,10.0,South,18.4,-,N/A,,Mostly Cloudy,190,2012-10-15 19:54:00
4:54 PM,70.0,59.0,68,29.65,10.0,South,16.1,-,N/A,,Mostly Cloudy,190,2012-10-15 20:54:00
5:54 PM,66.9,57.9,73,29.66,10.0,SSW,13.8,-,N/A,,Scattered Clouds,200,2012-10-15 21:54:00
6:54 PM,66.0,57.9,75,29.65,10.0,South,16.1,-,N/A,,Scattered Clouds,190,2012-10-15 22:54:00
7:54 PM,64.0,60.1,87,29.65,10.0,SSW,16.1,-,0.01,,Overcast,200,2012-10-15 23:54:00
8:54 PM,64.0,60.1,87,29.63,10.0,SSW,12.7,-,N/A,,Overcast,200,2012-10-16 00:54:00
9:26 PM,64.4,60.8,88,29.65,10.0,SSW,13.8,-,N/A,,Overcast,210,2012-10-16 01:26:00
9:54 PM,64.0,60.1,87,29.65,10.0,SSW,10.4,-,0.01,,Overcast,210,2012-10-16 01:54:00
10:54 PM,63.0,60.1,90,29.63,10.0,South,4.6,-,0.00,Rain,Light Rain,190,2012-10-16 02:54:00
11:06 PM,64.4,60.8,88,29.62,10.0,South,3.5,-,0.00,,Overcast,180,2012-10-16 03:06:00
11:20 PM,62.6,60.8,94,29.62,10.0,South,3.5,-,0.00,,Overcast,190,2012-10-16 03:20:00
11:54 PM,63.0,60.1,90,29.61,10.0,South,4.6,-,0.00,,Overcast,190,2012-10-16 03:54:00